Regional Weather Roundup
Issued by NWS Goodland, KS

Home | Current Version | Previous Version | Graphics & Text | Print | Product List | Glossary On
Versions: 1 2 3 4 5 6 7 8 9 10 11 12 13 14 15 16 17 18 19 20 21 22 23 24 25 26 27 28 29 30 31 32 33 34 35 36 37 38 39 40 41 42 43 44 45 46 47 48 49 50
000
ASUS43 KGLD 280959
RWRGLD

GOODLAND FORECAST AREA HOURLY WEATHER ROUNDUP
NATIONAL WEATHER SERVICE GOODLAND KS
300 AM MST SUN DEC 28 2014

...OFFICIAL OBSERVATIONS...

CITY           SKY/WX    TMP DP  RH WIND       PRES   REMARKS
GOODLAND KS    CLEAR     17  10  74 SW10      30.06F WCI   5
HILL CITY KS   CLEAR     12   6  77 W7        30.15F
IMPERIAL NEB   MOCLDY     2  -5  72 W3        30.07F
MCCOOK NEB     PTCLDY     6   2  83 W10       30.12F WCI  -9
AKRON CO       PTCLDY    11   5  77 W10       29.99F WCI  -3
BURLINGTON CO  PTCLDY     9   4  80 SW9       30.04F
LIMON CO       PTCLDY    -2  -6  83 CALM      30.00S
$$

...UNOFFICIAL OBSERVATIONS...

CITY           SKY/WX    TMP DP  RH WIND       PRES   REMARKS
COLBY KS       CLEAR      5   3  92 SW8       30.09F
NORTON KS      CLEAR      5   0  78 SW8       30.13F
SHARON SPRINGS   N/A     11   8  86 SW9         N/A
TRIBUNE KS     PTCLDY    14  12  92 SW5       30.09F
KIT CARSON CO    N/A      8   4  85 MISG        N/A
YUMA CO          N/A      2  -4  75 CALM        N/A
$$


USA.gov is the U.S. government's official web portal to all federal, state and local government web resources and services.